GFA508 OBBI-OMDB

Flight info

Callsign GFA508
Flight time 0h 54m
Altitude 25000
Route BHR345/30R DCT BHR N697 SODAK P559 VUTEB VUTEB4C
Aircraft A320/M-SDE3FGHIRWY/LB1

Departure

Time 2026-04-20 15:11
Airport Bahrain International Airport (OBBI)

Arrival

Time 2026-04-20 16:06
Airport Dubai International Airport (OMDB)
Time Latitude Longitude Altitude Speed Heading
2026-04-20 14:44 26.26537 50.63532 21 ft 0 kts 213°
2026-04-20 15:01 26.26538 50.63533 21 ft 2 kts 213°
2026-04-20 15:01 26.26552 50.63543 21 ft 2 kts 213°
2026-04-20 15:01 26.26566 50.63552 23 ft 2 kts 213°
2026-04-20 15:02 26.26580 50.63562 24 ft 2 kts 213°
2026-04-20 15:02 26.26594 50.63572 25 ft 2 kts 213°
2026-04-20 15:02 26.26608 50.63583 22 ft 3 kts 196°
2026-04-20 15:02 26.26626 50.63585 25 ft 3 kts 161°
2026-04-20 15:03 26.26640 50.63576 22 ft 1 kts 134°
2026-04-20 15:03 26.26637 50.63580 22 ft 1 kts 134°
2026-04-20 15:03 26.26636 50.63580 22 ft 0 kts 134°
2026-04-20 15:05 26.26628 50.63591 21 ft 7 kts 127°
2026-04-20 15:05 26.26597 50.63642 21 ft 8 kts 124°
2026-04-20 15:06 26.26571 50.63689 22 ft 7 kts 120°
2026-04-20 15:06 26.26575 50.63741 23 ft 10 kts 57°
2026-04-20 15:06 26.26617 50.63808 21 ft 11 kts 93°
2026-04-20 15:06 26.26583 50.63876 21 ft 9 kts 122°
2026-04-20 15:07 26.26552 50.63929 22 ft 7 kts 122°
2026-04-20 15:07 26.26526 50.63974 21 ft 9 kts 123°
2026-04-20 15:07 26.26463 50.64080 22 ft 20 kts 125°
2026-04-20 15:07 26.26393 50.64204 20 ft 18 kts 122°
2026-04-20 15:08 26.26327 50.64316 20 ft 17 kts 124°
2026-04-20 15:08 26.26267 50.64419 18 ft 16 kts 120°
2026-04-20 15:08 26.26208 50.64522 19 ft 15 kts 122°
2026-04-20 15:08 26.26156 50.64613 20 ft 13 kts 123°
2026-04-20 15:09 26.26109 50.64693 19 ft 12 kts 123°
2026-04-20 15:09 26.26070 50.64763 21 ft 10 kts 122°
2026-04-20 15:09 26.26038 50.64819 21 ft 7 kts 122°
2026-04-20 15:09 26.26017 50.64883 21 ft 15 kts 94°
2026-04-20 15:10 26.26087 50.64992 18 ft 20 kts 30°
2026-04-20 15:10 26.26178 50.64935 18 ft 17 kts 302°
2026-04-20 15:10 26.26259 50.64795 17 ft 32 kts 304°
2026-04-20 15:10 26.26509 50.64364 15 ft 98 kts 303°
2026-04-20 15:11 26.26978 50.63544 17 ft 150 kts 303°
2026-04-20 15:11 26.27578 50.62495 435 ft 156 kts 307°
2026-04-20 15:11 26.28285 50.61623 1038 ft 152 kts 336°
2026-04-20 15:11 26.29261 50.61178 1543 ft 153 kts 345°
2026-04-20 15:12 26.30260 50.60744 2044 ft 155 kts 345°
2026-04-20 15:12 26.31262 50.60200 2397 ft 171 kts 335°
2026-04-20 15:12 26.32392 50.59612 2581 ft 189 kts 346°
2026-04-20 15:12 26.33702 50.59153 2734 ft 210 kts 348°
2026-04-20 15:13 26.35175 50.58689 3010 ft 229 kts 348°
2026-04-20 15:13 26.36781 50.58191 3364 ft 248 kts 348°
2026-04-20 15:13 26.38520 50.57669 3746 ft 268 kts 348°
2026-04-20 15:13 26.40369 50.57151 4377 ft 277 kts 347°
2026-04-20 15:14 26.42295 50.56732 5037 ft 286 kts 355°
2026-04-20 15:14 26.44287 50.57020 5703 ft 294 kts 20°
2026-04-20 15:14 26.46028 50.58238 6381 ft 302 kts 46°
2026-04-20 15:14 26.47142 50.60220 7001 ft 306 kts 74°
2026-04-20 15:15 26.47360 50.62564 7647 ft 305 kts 102°
2026-04-20 15:15 26.46959 50.64863 8317 ft 308 kts 106°
2026-04-20 15:15 26.46504 50.67224 9013 ft 313 kts 106°
2026-04-20 15:15 26.46039 50.69623 9692 ft 318 kts 106°
2026-04-20 15:16 26.45633 50.72088 10186 ft 332 kts 96°
2026-04-20 15:16 26.45890 50.74745 10345 ft 358 kts 76°
2026-04-20 15:16 26.46598 50.77501 10466 ft 381 kts 73°
2026-04-20 15:16 26.47392 50.80400 10755 ft 396 kts 73°
2026-04-20 15:17 26.48201 50.83367 11305 ft 402 kts 73°
2026-04-20 15:17 26.49002 50.86333 11917 ft 405 kts 73°
2026-04-20 15:17 26.49813 50.89366 12547 ft 408 kts 72°
2026-04-20 15:17 26.50672 50.92403 13187 ft 411 kts 71°
2026-04-20 15:18 26.51583 50.95450 13801 ft 415 kts 70°
2026-04-20 15:18 26.52523 50.98508 14357 ft 418 kts 69°
2026-04-20 15:18 26.53466 51.01553 14910 ft 421 kts 69°
2026-04-20 15:18 26.54421 51.04657 15465 ft 424 kts 70°
2026-04-20 15:19 26.55377 51.07797 16007 ft 428 kts 70°
2026-04-20 15:19 26.56327 51.10960 16558 ft 431 kts 70°
2026-04-20 15:19 26.57275 51.14145 17116 ft 434 kts 70°
2026-04-20 15:19 26.58234 51.17372 17671 ft 437 kts 70°
2026-04-20 15:20 26.59187 51.20571 18202 ft 440 kts 70°
2026-04-20 15:20 26.60162 51.23838 18665 ft 443 kts 70°
2026-04-20 15:20 26.61145 51.27130 19131 ft 447 kts 70°
2026-04-20 15:20 26.62130 51.30434 19572 ft 450 kts 70°
2026-04-20 15:21 26.63124 51.33776 20013 ft 454 kts 71°
2026-04-20 15:21 26.64111 51.37101 20435 ft 457 kts 71°
2026-04-20 15:21 26.65115 51.40490 20856 ft 460 kts 71°
2026-04-20 15:21 26.66118 51.43914 21267 ft 464 kts 73°
2026-04-20 15:22 26.66729 51.47470 21653 ft 467 kts 86°
2026-04-20 15:22 26.66614 51.51100 22040 ft 468 kts 102°
2026-04-20 15:22 26.65709 51.54577 22422 ft 467 kts 113°
2026-04-20 15:22 26.64555 51.57965 22800 ft 470 kts 114°
2026-04-20 15:23 26.63334 51.61375 23178 ft 473 kts 115°
2026-04-20 15:23 26.62077 51.64781 23515 ft 475 kts 115°
2026-04-20 15:23 26.60802 51.68204 23813 ft 478 kts 115°
2026-04-20 15:23 26.59529 51.71641 24122 ft 480 kts 115°
2026-04-20 15:24 26.58263 51.75111 24441 ft 482 kts 115°
2026-04-20 15:24 26.57009 51.78591 24730 ft 484 kts 114°
2026-04-20 15:24 26.55772 51.82046 24821 ft 487 kts 114°
2026-04-20 15:24 26.54502 51.85589 24845 ft 493 kts 114°
2026-04-20 15:25 26.53223 51.89157 24844 ft 495 kts 114°
2026-04-20 15:25 26.51943 51.92726 24841 ft 496 kts 114°
2026-04-20 15:25 26.50654 51.96306 24841 ft 496 kts 114°
2026-04-20 15:25 26.49360 51.99880 24837 ft 496 kts 114°
2026-04-20 15:26 26.48065 52.03449 24837 ft 495 kts 114°
2026-04-20 15:26 26.46768 52.07020 24842 ft 495 kts 114°
2026-04-20 15:26 26.45472 52.10586 24844 ft 495 kts 114°
2026-04-20 15:26 26.44177 52.14146 24838 ft 495 kts 114°
2026-04-20 15:27 26.42877 52.17707 24840 ft 495 kts 114°
2026-04-20 15:27 26.41575 52.21269 24838 ft 495 kts 114°
2026-04-20 15:27 26.40296 52.24776 24836 ft 495 kts 114°
2026-04-20 15:27 26.39002 52.28334 24838 ft 494 kts 114°
2026-04-20 15:28 26.37705 52.31898 24838 ft 494 kts 114°
2026-04-20 15:28 26.36404 52.35458 24835 ft 494 kts 114°
2026-04-20 15:28 26.35102 52.39009 24833 ft 494 kts 114°
2026-04-20 15:28 26.33820 52.42507 24833 ft 494 kts 114°
2026-04-20 15:29 26.32505 52.46095 24828 ft 494 kts 114°
2026-04-20 15:29 26.31203 52.49642 24832 ft 494 kts 114°
2026-04-20 15:29 26.29919 52.53142 24830 ft 494 kts 114°
2026-04-20 15:29 26.28619 52.56684 24829 ft 494 kts 114°
2026-04-20 15:30 26.27323 52.60224 24829 ft 494 kts 114°
2026-04-20 15:30 26.26023 52.63769 24828 ft 494 kts 114°
2026-04-20 15:30 26.24724 52.67304 24832 ft 494 kts 114°
2026-04-20 15:30 26.23417 52.70850 24824 ft 494 kts 114°
2026-04-20 15:31 26.22110 52.74388 24825 ft 494 kts 114°
2026-04-20 15:31 26.20803 52.77926 24828 ft 494 kts 114°
2026-04-20 15:31 26.19489 52.81477 24825 ft 494 kts 114°
2026-04-20 15:31 26.18176 52.85015 24828 ft 494 kts 114°
2026-04-20 15:32 26.16864 52.88547 24831 ft 494 kts 114°
2026-04-20 15:32 26.15553 52.92079 24832 ft 494 kts 114°
2026-04-20 15:32 26.14259 52.95576 24826 ft 494 kts 114°
2026-04-20 15:32 26.12949 52.99112 24827 ft 494 kts 114°
2026-04-20 15:33 26.11641 53.02648 24831 ft 494 kts 114°
2026-04-20 15:33 26.10331 53.06183 24831 ft 494 kts 114°
2026-04-20 15:33 26.09017 53.09714 24838 ft 493 kts 114°
2026-04-20 15:33 26.08145 53.12053 24835 ft 493 kts 114°
2026-04-20 15:34 26.06828 53.15585 24839 ft 493 kts 114°
2026-04-20 15:34 26.05514 53.19108 24837 ft 493 kts 114°
2026-04-20 15:34 26.04192 53.22646 24840 ft 493 kts 114°
2026-04-20 15:34 26.02893 53.26121 24840 ft 493 kts 114°
2026-04-20 15:35 26.01573 53.29647 24840 ft 492 kts 114°
2026-04-20 15:35 26.00254 53.33168 24841 ft 492 kts 114°
2026-04-20 15:35 25.98934 53.36692 24839 ft 492 kts 114°
2026-04-20 15:35 25.97619 53.40204 24840 ft 492 kts 114°
2026-04-20 15:36 25.96318 53.43677 24841 ft 492 kts 114°
2026-04-20 15:36 25.95000 53.47190 24835 ft 492 kts 114°
2026-04-20 15:36 25.93677 53.50708 24834 ft 492 kts 114°
2026-04-20 15:36 25.92352 53.54223 24836 ft 492 kts 114°
2026-04-20 15:37 25.91029 53.57730 24832 ft 492 kts 114°
2026-04-20 15:37 25.89724 53.61189 24836 ft 492 kts 114°
2026-04-20 15:37 25.88406 53.64691 24834 ft 492 kts 114°
2026-04-20 15:37 25.87079 53.68208 24831 ft 492 kts 114°
2026-04-20 15:38 25.85753 53.71713 24830 ft 492 kts 114°
2026-04-20 15:38 25.84453 53.75244 24831 ft 492 kts 113°
2026-04-20 15:38 25.83217 53.78751 24832 ft 492 kts 112°
2026-04-20 15:38 25.82002 53.82299 24835 ft 492 kts 112°
2026-04-20 15:39 25.80794 53.85874 24836 ft 492 kts 112°
2026-04-20 15:39 25.79586 53.89439 24649 ft 493 kts 112°
2026-04-20 15:39 25.78382 53.92963 24393 ft 493 kts 112°
2026-04-20 15:39 25.77156 53.96511 24052 ft 493 kts 112°
2026-04-20 15:40 25.75922 54.00055 23722 ft 490 kts 112°
2026-04-20 15:40 25.74717 54.03585 23386 ft 488 kts 111°
2026-04-20 15:40 25.73581 54.07130 22990 ft 485 kts 110°
2026-04-20 15:40 25.72504 54.10675 22594 ft 482 kts 109°
2026-04-20 15:41 25.71461 54.14201 22204 ft 479 kts 109°
2026-04-20 15:41 25.70441 54.17656 21826 ft 475 kts 109°
2026-04-20 15:41 25.69399 54.21138 21454 ft 477 kts 109°
2026-04-20 15:41 25.68324 54.24666 21085 ft 488 kts 110°
2026-04-20 15:42 25.67217 54.28237 20721 ft 489 kts 110°
2026-04-20 15:42 25.66103 54.31810 20350 ft 487 kts 110°
2026-04-20 15:42 25.65001 54.35352 19992 ft 484 kts 110°
2026-04-20 15:42 25.63923 54.38821 19641 ft 481 kts 109°
2026-04-20 15:43 25.62835 54.42321 19286 ft 478 kts 109°
2026-04-20 15:43 25.61756 54.45787 18944 ft 475 kts 109°
2026-04-20 15:43 25.60682 54.49235 18604 ft 472 kts 109°
2026-04-20 15:43 25.59616 54.52659 18267 ft 469 kts 109°
2026-04-20 15:44 25.58608 54.56089 17893 ft 466 kts 104°
2026-04-20 15:44 25.58137 54.59623 17504 ft 462 kts 91°
2026-04-20 15:44 25.58317 54.63119 17133 ft 459 kts 81°
2026-04-20 15:44 25.58766 54.66612 16730 ft 456 kts 81°
2026-04-20 15:45 25.59207 54.70083 16066 ft 453 kts 81°
2026-04-20 15:45 25.59643 54.73534 15316 ft 450 kts 81°
2026-04-20 15:45 25.60076 54.76959 14584 ft 448 kts 81°
2026-04-20 15:45 25.60504 54.80368 13875 ft 445 kts 81°
2026-04-20 15:46 25.60921 54.83759 13107 ft 442 kts 82°
2026-04-20 15:46 25.60806 54.87095 12451 ft 439 kts 102°
2026-04-20 15:46 25.59772 54.90248 11980 ft 431 kts 112°
2026-04-20 15:46 25.58596 54.93286 11617 ft 426 kts 112°
2026-04-20 15:47 25.57413 54.96296 11248 ft 422 kts 113°
2026-04-20 15:47 25.56253 54.99236 10901 ft 419 kts 113°
2026-04-20 15:47 25.55072 55.02222 10539 ft 417 kts 113°
2026-04-20 15:47 25.53794 55.05092 10216 ft 414 kts 117°
2026-04-20 15:48 25.52435 55.07844 9994 ft 412 kts 119°
2026-04-20 15:48 25.51006 55.10591 9851 ft 411 kts 120°
2026-04-20 15:48 25.49562 55.13294 9735 ft 397 kts 120°
2026-04-20 15:48 25.48210 55.15811 9602 ft 363 kts 120°
2026-04-20 15:49 25.46979 55.18118 9476 ft 334 kts 120°
2026-04-20 15:49 25.45764 55.20196 9350 ft 312 kts 129°
2026-04-20 15:49 25.44347 55.21958 9224 ft 300 kts 131°
2026-04-20 15:49 25.42983 55.23634 9097 ft 290 kts 131°
2026-04-20 15:50 25.41654 55.25273 8878 ft 283 kts 131°
2026-04-20 15:50 25.40351 55.26880 8761 ft 278 kts 131°
2026-04-20 15:50 25.39054 55.28475 8674 ft 279 kts 131°
2026-04-20 15:50 25.37758 55.30066 8539 ft 275 kts 131°
2026-04-20 15:51 25.36502 55.31606 8430 ft 264 kts 131°
2026-04-20 15:51 25.35370 55.33146 8319 ft 259 kts 121°
2026-04-20 15:51 25.34431 55.34843 8163 ft 258 kts 120°
2026-04-20 15:51 25.33500 55.36527 8019 ft 256 kts 120°
2026-04-20 15:52 25.32563 55.38216 7877 ft 257 kts 120°
2026-04-20 15:52 25.31626 55.39898 7731 ft 256 kts 120°
2026-04-20 15:52 25.30692 55.41572 7592 ft 256 kts 120°
2026-04-20 15:53 25.28830 55.44912 7299 ft 255 kts 120°
2026-04-20 15:53 25.27899 55.46580 7157 ft 254 kts 120°
2026-04-20 15:53 25.26972 55.48237 7016 ft 253 kts 120°
2026-04-20 15:53 25.26062 55.49872 6914 ft 253 kts 120°
2026-04-20 15:54 25.25143 55.51527 6805 ft 252 kts 120°
2026-04-20 15:54 25.24226 55.53180 6707 ft 252 kts 120°
2026-04-20 15:54 25.23311 55.54830 6610 ft 251 kts 120°
2026-04-20 15:54 25.22393 55.56480 6486 ft 251 kts 120°
2026-04-20 15:55 25.21480 55.58122 6396 ft 251 kts 120°
2026-04-20 15:55 25.20578 55.59740 6291 ft 250 kts 120°
2026-04-20 15:55 25.19669 55.61371 6055 ft 248 kts 120°
2026-04-20 15:55 25.18767 55.62992 5722 ft 247 kts 120°
2026-04-20 15:56 25.17872 55.64599 5396 ft 245 kts 120°
2026-04-20 15:56 25.16981 55.66198 5068 ft 243 kts 121°
2026-04-20 15:56 25.16096 55.67785 4753 ft 242 kts 120°
2026-04-20 15:56 25.15214 55.69366 4430 ft 241 kts 121°
2026-04-20 15:57 25.14310 55.70885 4116 ft 240 kts 131°
2026-04-20 15:57 25.12994 55.71980 3781 ft 238 kts 158°
2026-04-20 15:57 25.11388 55.72303 3440 ft 236 kts 186°
2026-04-20 15:57 25.09837 55.71794 3135 ft 232 kts 211°
2026-04-20 15:58 25.08615 55.70657 3000 ft 231 kts 236°
2026-04-20 15:58 25.07992 55.69053 2874 ft 228 kts 264°
2026-04-20 15:58 25.08155 55.67352 2747 ft 220 kts 294°
2026-04-20 15:58 25.08884 55.65927 2647 ft 208 kts 302°
2026-04-20 15:59 25.09627 55.64601 2561 ft 204 kts 302°
2026-04-20 15:59 25.10361 55.63279 2549 ft 197 kts 302°
2026-04-20 15:59 25.11042 55.62048 2543 ft 179 kts 302°
2026-04-20 15:59 25.11664 55.60930 2521 ft 163 kts 302°
2026-04-20 16:00 25.12243 55.59891 2522 ft 155 kts 302°
2026-04-20 16:00 25.12796 55.58898 2523 ft 153 kts 302°
2026-04-20 16:00 25.13354 55.57897 2530 ft 153 kts 303°
2026-04-20 16:00 25.13910 55.56900 2525 ft 152 kts 302°
2026-04-20 16:01 25.14465 55.55903 2532 ft 152 kts 302°
2026-04-20 16:01 25.15019 55.54908 2532 ft 152 kts 303°
2026-04-20 16:01 25.15574 55.53911 2528 ft 152 kts 302°
2026-04-20 16:01 25.16127 55.52918 2534 ft 152 kts 303°
2026-04-20 16:02 25.16672 55.51940 2467 ft 152 kts 302°
2026-04-20 16:02 25.17223 55.50950 2325 ft 151 kts 302°
2026-04-20 16:02 25.17772 55.49963 2156 ft 151 kts 303°
2026-04-20 16:02 25.18311 55.48993 1993 ft 147 kts 302°
2026-04-20 16:03 25.18845 55.48033 1801 ft 146 kts 303°
2026-04-20 16:03 25.19373 55.47084 1617 ft 144 kts 302°
2026-04-20 16:03 25.19898 55.46139 1425 ft 144 kts 302°
2026-04-20 16:03 25.20416 55.45207 1247 ft 143 kts 302°
2026-04-20 16:04 25.20937 55.44268 1056 ft 143 kts 302°
2026-04-20 16:04 25.21458 55.43332 881 ft 143 kts 301°
2026-04-20 16:04 25.21978 55.42395 701 ft 143 kts 302°
2026-04-20 16:04 25.22498 55.41459 516 ft 143 kts 301°
2026-04-20 16:05 25.23017 55.40521 328 ft 143 kts 301°
2026-04-20 16:05 25.23535 55.39584 138 ft 142 kts 301°
2026-04-20 16:05 25.24017 55.38707 56 ft 124 kts 301°
2026-04-20 16:05 25.24419 55.37995 47 ft 96 kts 301°
2026-04-20 16:06 25.24733 55.37430 33 ft 78 kts 302°
2026-04-20 16:06 25.24981 55.36981 30 ft 48 kts 299°
2026-04-20 16:06 25.25005 55.36824 28 ft 16 kts 272°
2026-04-20 16:06 25.25018 55.36686 22 ft 20 kts 274°
2026-04-20 16:07 25.25023 55.36530 22 ft 21 kts 270°
2026-04-20 16:07 25.25053 55.36374 23 ft 22 kts 288°
2026-04-20 16:07 25.25134 55.36221 20 ft 24 kts 301°
2026-04-20 16:07 25.25227 55.36053 17 ft 27 kts 301°
2026-04-20 16:08 25.25330 55.35870 16 ft 29 kts 302°
2026-04-20 16:08 25.25441 55.35675 12 ft 31 kts 300°
2026-04-20 16:08 25.25547 55.35470 13 ft 31 kts 300°
2026-04-20 16:08 25.25661 55.35270 17 ft 30 kts 303°
2026-04-20 16:09 25.25763 55.35086 22 ft 15 kts 301°
2026-04-20 16:09 25.25736 55.34984 21 ft 15 kts 237°
2026-04-20 16:09 25.25766 55.34891 22 ft 13 kts 298°
2026-04-20 16:09 25.25809 55.34807 23 ft 12 kts 300°
2026-04-20 16:10 25.25829 55.34770 23 ft 5 kts 304°
2026-04-20 16:10 25.25828 55.34732 26 ft 6 kts 220°
2026-04-20 16:10 25.25780 55.34700 23 ft 9 kts 213°
2026-04-20 16:10 25.25765 55.34689 23 ft 0 kts 213°
2026-04-20 16:11 25.25763 55.34687 23 ft 0 kts 213°
2026-04-20 16:13 25.25763 55.34688 24 ft 0 kts 213°
2026-04-20 16:15 25.25763 55.34687 24 ft 0 kts 213°